GFSNIL_sfc_temp_000.txt.gz
Temp
49 48 45 43 43 42 42 41 41 40 40 39 39 38 37 36 36 36 34 33 33 33
45 46 45 43 42 41 41 43 40 40 39 38 38 37 36 35 35 34 33 33 32 32
43 43 42 42 41 40 40 40 39 39 38 38 37 36 35 34 34 34 33 35 32 31
42 42 41 41 40 39 39 39 38 38 37 36 35 34 33 33 35 33 33 32 32 32
42 41 40 39 39 39 38 38 37 37 36 35 35 34 33 33 33 32 31 32 31 30
40 39 38 38 38 38 37 37 36 36 35 34 34 34 34 33 33 32 31 31 29 30
38 38 37 37 37 37 37 36 35 34 34 34 33 34 34 34 32 31 31 31 30 29
37 37 37 37 36 36 36 35 34 34 33 32 34 39 36 35 32 29 29 29 30 31
37 37 36 36 35 36 35 33 32 31 31 30 36 40 43 40 31 30 29 27 29 29
37 36 35 35 35 34 32 30 30 29 29 28 28 40 41 41 32 30 28 30 30 31
36 35 35 34 33 31 29 28 28 28 28 27 31 39 40 40 31 29 28 30 29 28
36 35 33 31 30 28 28 27 27 28 27 26 27 37 38 37 30 30 29 30 29 29
34 33 30 29 28 27 26 28 29 29 27 30 26 34 37 37 31 28 30 30 30 35
31 29 28 27 26 25 25 26 24 26 25 25 27 28 37 38 33 31 32 31 31 31

GFSNIL_sfc_temp_003.txt.gz
Temp
57 55 54 52 51 51 51 49 48 48 48 47 47 47 46 46 45 45 45 43 43 43
54 53 51 51 51 50 48 48 47 47 47 46 46 45 45 45 44 44 44 43 43 41
52 52 50 50 48 48 48 47 46 46 46 45 45 44 44 44 43 43 43 43 41 41
49 49 49 48 47 47 47 46 46 45 44 44 43 43 43 43 42 41 41 41 40 39
48 48 47 46 46 46 45 45 44 44 43 43 42 42 42 41 41 40 39 39 38 38
46 46 45 44 44 44 44 43 43 43 42 41 41 41 41 41 40 39 38 38 37 37
45 44 44 43 43 43 43 42 42 41 40 39 40 40 41 41 40 38 38 38 37 37
43 43 42 42 41 41 42 41 40 39 39 39 40 41 42 41 39 37 37 37 37 38
42 42 40 40 40 40 39 39 39 38 37 37 39 40 42 42 40 38 36 36 37 38
41 40 39 39 39 38 37 37 36 36 36 35 36 40 41 41 40 37 37 36 37 37
40 38 38 38 37 37 37 36 36 35 34 34 35 38 39 39 38 37 37 36 37 36
39 38 37 36 36 35 35 35 34 34 34 33 34 37 38 38 37 36 36 37 37 36
38 37 35 35 34 33 34 34 34 34 33 33 33 35 37 38 37 35 35 37 37 37
35 34 34 33 33 32 32 32 31 32 32 33 33 34 36 37 37 35 35 35 35 36

GFSNIL_sfc_temp_006.txt.gz
Temp
58 58 60 62 62 62 61 59 58 58 57 56 56 55 54 54 54 53 53 49 50 49
57 61 63 61 63 62 60 58 57 57 56 55 54 54 53 54 53 52 51 50 50 49
62 63 61 62 60 58 58 57 56 55 55 54 53 53 53 52 52 51 51 50 48 48
55 57 59 60 58 58 56 56 55 54 54 53 52 52 52 51 50 48 48 48 46 45
58 60 58 57 56 57 55 55 54 53 52 51 51 51 51 49 49 47 46 46 44 43
58 57 56 55 55 54 53 52 52 52 51 50 49 49 49 48 48 47 46 45 43 43
57 56 55 53 53 52 52 51 50 50 49 48 48 47 47 47 47 46 45 44 43 43
54 53 52 51 50 50 50 49 49 48 47 47 47 47 46 46 46 45 44 44 44 43
50 50 49 49 48 48 47 47 47 46 46 45 45 40 42 43 44 44 43 42 43 43
49 47 47 48 47 46 46 46 45 45 45 44 44 40 41 41 43 43 42 41 40 41
47 46 47 47 46 45 46 45 45 44 43 42 42 38 39 40 42 42 42 41 41 40
46 45 45 44 44 44 45 44 44 43 41 41 42 38 38 39 41 41 41 41 42 40
47 45 44 44 43 42 44 42 43 41 41 39 40 38 37 39 40 39 40 41 41 40
45 44 44 43 43 42 42 41 41 40 41 40 39 39 37 37 39 39 38 38 38 39

GFSNIL_sfc_temp_009.txt.gz
Temp
66 62 61 59 58 60 58 60 60 60 60 58 57 57 56 55 54 54 52 51 50 50
63 61 59 60 61 61 61 61 60 59 58 57 57 56 55 54 54 53 52 51 51 49
60 60 62 61 61 60 60 59 58 57 57 56 56 55 54 53 53 52 52 51 49 48
59 60 60 61 59 59 59 58 57 56 56 55 55 54 53 53 52 50 50 49 47 46
58 59 59 59 59 59 57 58 56 56 55 54 53 53 52 51 51 49 48 47 46 44
56 58 58 58 58 58 56 55 54 54 53 52 51 51 51 51 50 49 48 47 45 44
55 54 55 57 56 55 54 53 53 52 51 50 50 49 49 48 48 48 47 46 45 44
55 56 55 53 53 53 52 52 51 50 49 49 48 49 44 46 46 45 45 45 45 44
54 52 51 51 51 50 49 49 49 48 47 46 47 41 42 42 42 43 43 42 43 43
50 49 49 49 49 48 47 48 47 46 46 45 46 40 41 41 41 41 42 41 40 40
48 47 49 48 47 47 47 46 46 45 45 44 44 39 40 40 40 42 42 41 41 40
49 47 47 46 45 46 45 45 44 44 43 43 43 40 39 39 39 40 40 42 42 41
49 47 45 45 44 44 44 43 43 42 43 42 40 42 39 39 38 37 39 40 40 42
47 45 45 44 44 43 42 41 42 41 43 42 42 40 40 39 37 37 36 36 37 39

GFSNIL_sfc_temp_012.txt.gz
Temp
61 55 53 53 53 55 55 55 56 55 50 49 49 48 47 46 45 45 43 42 42 41
59 55 53 53 54 56 57 57 56 54 48 48 48 48 47 45 44 44 43 42 41 40
59 57 55 55 56 57 57 57 54 50 48 47 48 47 46 45 45 44 42 43 41 39
57 57 57 57 58 57 56 55 53 48 47 47 47 47 46 45 45 43 42 41 40 39
58 58 57 57 56 56 54 53 52 48 48 48 47 46 45 44 44 42 41 40 39 38
57 56 55 54 54 54 52 51 47 47 46 46 46 45 44 43 43 41 40 39 38 37
55 54 54 54 53 51 51 46 46 46 45 45 45 45 43 43 40 39 40 40 38 37
53 53 52 50 50 50 47 45 45 45 44 43 44 45 39 40 38 37 36 37 38 38
50 49 48 48 47 45 43 43 44 43 42 41 46 43 43 41 36 36 35 34 35 36
47 46 46 46 44 42 42 43 42 41 41 40 39 42 41 41 35 34 33 33 33 35
41 44 45 43 43 43 42 40 40 40 41 40 40 41 40 40 33 33 33 33 34 33
42 44 43 41 41 40 39 40 40 41 39 37 34 40 40 38 32 31 31 34 34 34
45 43 40 38 37 40 40 39 39 38 36 39 33 41 41 38 33 28 29 31 33 39
42 40 39 39 40 37 36 36 34 34 34 34 35 33 41 40 33 30 30 30 30 32

GFSNIL_sfc_temp_015.txt.gz
Temp
58 54 54 56 56 56 56 56 56 55 52 52 50 46 45 43 42 42 41 41 41 40
57 54 54 55 57 56 56 55 55 54 52 51 50 45 44 43 43 42 41 41 40 39
53 53 54 53 55 55 55 56 54 52 51 48 48 45 43 42 43 42 40 41 39 38
55 54 55 55 55 54 55 54 52 51 50 49 45 44 43 43 42 42 42 39 39 38
55 56 55 55 54 54 52 53 52 51 50 48 45 44 43 43 42 41 40 39 38 37
55 55 54 52 53 53 52 51 51 50 47 46 43 43 42 42 41 40 39 38 36 36
54 53 52 52 52 51 51 50 49 48 46 43 43 44 41 41 38 37 38 38 36 35
52 52 51 49 49 49 49 47 47 45 43 42 43 44 39 39 37 36 36 35 36 36
48 48 47 47 47 46 45 45 44 41 40 41 44 44 44 40 37 36 33 31 33 34
45 44 43 43 42 43 43 42 39 39 41 40 40 43 42 41 36 32 30 31 32 33
42 41 41 41 40 39 41 40 40 40 39 37 40 42 41 40 31 31 31 31 31 30
38 37 36 35 36 38 38 38 38 37 37 36 37 41 41 36 31 31 29 31 31 32
39 40 40 39 40 38 37 37 38 38 36 39 32 42 41 37 32 28 29 30 32 37
39 40 38 37 36 35 37 36 33 32 31 31 33 33 41 41 31 30 30 29 30 31

GFSNIL_sfc_temp_018.txt.gz
Temp
58 55 55 54 54 54 53 53 55 55 54 52 51 50 46 44 45 41 40 39 39 39
54 52 52 52 53 53 53 53 54 53 52 51 50 49 48 45 42 40 39 39 39 38
54 53 52 52 53 53 53 54 53 52 51 51 50 49 47 44 41 40 39 39 38 37
51 51 52 52 53 53 54 53 53 51 50 49 48 47 46 41 43 40 39 38 39 38
50 50 50 51 52 54 53 53 51 50 50 48 46 45 44 44 41 40 39 39 37 37
49 50 50 51 52 53 52 51 50 49 47 46 46 45 44 42 40 39 39 39 38 37
49 51 51 52 51 51 51 49 49 48 46 43 43 44 43 39 37 37 39 39 36 35
48 50 50 50 50 49 48 48 46 44 44 43 42 43 40 38 36 38 37 36 37 36
48 47 46 46 43 42 41 41 41 40 39 39 42 44 43 40 37 37 35 34 33 33
44 42 43 43 41 40 38 38 36 38 40 39 41 44 43 40 36 35 32 31 31 33
41 40 41 39 37 36 36 37 38 38 39 39 41 43 42 39 33 31 29 30 30 29
40 38 37 35 34 34 33 34 34 35 36 36 38 42 41 36 29 30 29 30 30 31
38 37 35 34 34 33 33 35 37 36 37 39 34 42 41 35 31 28 29 29 30 36
35 35 35 35 37 37 36 36 35 33 31 30 31 30 41 41 31 30 29 29 29 30

GFSNIL_sfc_temp_021.txt.gz
Temp
59 57 57 55 55 55 54 54 52 52 52 51 51 50 49 47 45 46 43 43 40 38
56 53 53 54 54 54 53 52 51 51 50 50 49 49 49 47 45 45 42 42 40 40
53 53 52 50 51 51 50 52 50 49 50 50 50 49 48 46 45 44 42 41 39 37
51 51 50 50 51 51 51 51 51 51 50 50 49 48 47 45 44 43 42 41 40 37
50 48 48 49 50 50 50 51 51 51 51 49 48 46 44 43 40 40 40 40 38 36
49 47 47 47 48 50 50 50 50 50 48 46 44 43 41 41 41 42 41 38 38 38
47 46 46 48 50 50 50 49 48 47 45 43 42 41 39 39 39 39 39 39 38 38
47 49 49 49 48 48 47 45 45 43 42 41 40 40 37 38 38 38 38 38 38 37
47 47 46 46 45 44 43 42 41 40 39 38 40 41 40 39 37 37 36 35 34 35
44 42 41 41 41 40 39 39 37 37 37 38 40 42 42 40 36 35 34 34 32 33
39 38 38 38 37 36 36 35 35 35 35 34 37 38 39 38 35 33 32 31 29 28
39 38 37 35 34 34 34 33 33 33 32 32 34 39 39 36 33 32 30 30 29 29
38 37 35 35 34 34 34 32 33 32 32 35 36 42 41 36 31 28 29 29 30 35
37 36 35 35 34 33 32 33 33 33 31 31 33 31 41 41 31 30 30 29 29 30

GFSNIL_sfc_temp_024.txt.gz
Temp
64 59 57 56 57 55 55 55 54 53 52 51 50 49 48 47 46 48 45 45 44 42
62 58 55 54 54 55 54 54 51 52 51 49 49 49 49 47 44 46 44 43 43 42
55 60 54 51 52 52 52 51 50 50 49 49 49 49 49 46 45 44 41 40 40 40
52 51 51 50 49 48 49 50 50 50 49 49 48 49 48 46 45 44 42 41 41 39
50 48 47 46 46 47 47 48 49 49 48 48 48 48 46 45 43 42 40 39 38 38
48 46 46 48 49 50 49 49 49 49 49 48 46 45 44 43 41 39 38 37 36 37
48 47 49 49 49 50 50 48 49 48 46 45 44 42 41 40 39 38 38 38 38 38
47 48 49 48 48 48 47 45 43 41 40 40 40 41 38 38 37 36 35 35 36 36
46 46 45 44 43 42 41 41 40 40 39 38 40 42 41 38 36 35 33 31 32 32
41 40 41 41 41 39 38 39 37 38 38 38 39 41 40 37 33 31 30 32 33 34
39 38 38 38 37 37 37 37 36 36 37 37 39 40 38 35 31 32 33 33 32 30
38 37 36 33 33 33 33 33 33 33 33 33 33 38 37 32 32 33 32 32 31 31
36 35 34 34 34 34 34 33 33 32 32 36 33 37 37 34 33 30 30 28 30 35
36 35 34 32 33 32 31 30 30 29 30 30 33 34 41 40 32 31 30 29 29 30

GFSNIL_sfc_temp_027.txt.gz
Temp
64 65 64 62 63 62 61 61 62 60 59 59 58 56 55 53 52 51 50 50 48 46
62 64 61 60 59 62 61 60 60 58 57 57 55 54 52 52 51 49 48 48 48 48
59 60 62 60 58 59 59 59 56 56 56 54 54 52 51 51 49 48 45 43 43 45
55 57 59 59 58 57 56 56 54 55 54 53 52 52 49 46 47 46 44 42 42 41
53 55 55 54 55 55 54 53 53 52 51 51 50 50 49 46 46 43 41 40 39 37
52 52 51 52 52 53 53 52 51 51 50 49 48 48 47 45 43 41 39 38 38 37
49 51 52 51 51 51 52 50 49 50 48 46 45 44 42 41 39 38 38 38 37 37
48 49 48 48 47 47 46 45 45 44 43 42 42 41 39 38 37 35 34 34 33 32
45 44 43 42 42 42 42 42 42 41 41 40 41 43 41 38 35 34 32 32 32 32
42 41 40 41 40 39 39 39 39 39 39 39 40 42 40 39 34 33 32 32 33 33
39 38 39 38 37 37 38 38 38 38 38 38 39 41 40 37 33 32 32 32 32 32
38 36 35 34 34 35 34 33 33 33 33 33 34 37 35 33 31 31 31 33 35 35
35 35 34 34 33 33 33 32 32 32 33 36 34 37 36 35 36 32 33 34 34 35
35 33 33 32 33 32 32 31 29 29 30 32 35 36 39 38 35 34 33 33 34 35

GFSNIL_sfc_temp_030.txt.gz
Temp
70 71 71 69 67 65 67 67 67 66 65 65 65 66 65 61 59 54 52 54 52 49
70 69 71 71 70 67 66 64 66 67 65 64 64 63 62 60 59 58 57 55 51 49
66 66 68 69 67 67 66 64 64 64 63 62 60 60 59 57 57 53 50 48 46 43
64 64 66 66 68 67 66 64 63 63 61 60 58 56 54 52 52 48 44 41 40 39
61 63 63 64 64 62 60 60 60 60 58 57 56 54 52 47 45 44 40 41 38 37
59 59 60 58 59 58 58 58 57 58 56 54 53 51 50 48 44 42 40 39 38 37
54 56 56 56 56 56 57 56 56 54 52 50 50 48 46 44 42 40 39 39 38 37
49 51 52 50 50 50 50 50 50 48 45 45 44 44 42 40 39 37 36 35 34 34
44 45 45 44 43 43 43 43 43 43 42 42 43 43 43 40 38 36 34 33 33 33
42 41 40 41 41 40 40 41 40 41 42 41 42 43 42 39 36 34 32 33 32 33
39 38 38 38 37 37 38 39 39 38 39 39 40 41 40 37 32 32 32 34 34 35
38 36 36 34 34 34 34 33 33 34 33 33 33 37 36 33 31 31 32 34 35 37
37 36 34 34 33 34 34 33 34 32 33 35 32 35 34 36 35 35 36 37 37 36
36 35 35 34 34 33 33 33 32 31 33 35 38 40 39 39 40 38 38 37 37 38

GFSNIL_sfc_temp_033.txt.gz
Temp
72 72 72 73 73 72 69 68 67 65 64 64 64 63 63 62 62 61 58 58 57 54
70 70 69 72 73 72 72 70 70 67 64 63 63 62 62 59 58 57 57 55 53 51
67 68 68 69 69 70 70 69 65 63 63 61 61 62 59 57 56 55 53 51 48 45
64 65 66 67 68 69 70 67 65 63 61 61 59 58 55 53 52 50 47 46 43 41
62 63 63 65 65 66 64 64 62 62 61 60 58 56 53 49 48 45 43 42 41 38
56 57 59 61 62 62 61 59 59 58 57 56 55 54 51 48 46 44 42 41 40 38
50 52 53 55 56 57 57 57 56 54 54 52 51 49 47 44 42 41 40 40 39 39
46 48 48 48 49 50 49 49 49 48 47 46 45 45 42 41 39 38 37 36 36 36
45 44 43 44 44 44 44 43 43 43 43 42 43 44 43 41 38 36 35 33 33 35
43 41 40 41 41 40 40 41 40 41 42 41 42 43 42 40 36 34 33 33 33 33
40 39 38 37 36 36 36 36 36 35 36 38 39 41 39 37 33 32 32 32 32 33
38 36 36 34 34 34 34 33 33 33 33 33 34 38 37 34 32 31 32 33 34 36
37 36 35 35 34 34 34 33 34 33 34 35 33 37 36 33 33 32 34 37 37 37
38 37 36 34 35 33 33 33 33 33 35 36 39 39 40 40 39 37 36 36 36 37

GFSNIL_sfc_temp_036.txt.gz
Temp
59 58 59 59 59 60 60 62 64 63 63 63 62 62 61 60 60 58 56 56 53 52
57 57 57 58 59 60 61 62 60 60 61 61 61 61 60 59 59 57 56 55 53 50
55 56 57 57 57 58 59 60 58 58 58 59 59 58 57 56 55 54 52 51 50 46
53 54 55 55 56 56 56 56 56 56 55 57 57 56 54 52 52 49 47 46 45 43
50 51 51 53 54 55 54 54 53 53 54 53 52 51 50 47 47 45 43 42 41 40
46 47 50 51 52 52 52 51 51 50 49 49 48 48 47 45 44 43 42 41 40 39
45 46 47 48 47 46 46 45 45 45 44 43 43 43 42 42 40 40 40 40 39 39
44 44 45 45 45 45 44 42 42 44 44 44 43 43 41 40 39 38 36 36 36 36
43 42 42 42 42 42 42 42 40 41 42 41 43 44 43 39 37 36 35 33 33 34
41 39 39 39 38 38 38 38 38 39 40 40 41 43 41 39 35 34 33 33 33 34
39 37 37 37 36 36 36 35 36 35 36 37 40 41 40 38 33 32 32 32 32 33
37 36 35 34 34 34 34 33 33 33 33 33 34 39 38 34 32 31 31 33 33 34
37 36 34 34 34 34 34 32 33 32 33 36 31 39 38 34 31 28 31 33 34 38
38 35 35 34 34 33 33 29 23 26 31 32 32 34 41 41 33 31 31 31 31 32

GFSNIL_sfc_temp_039.txt.gz
Temp
53 53 54 54 54 55 55 57 61 63 63 63 63 61 61 60 59 56 56 56 54 54
51 52 52 53 53 54 56 59 58 57 57 58 58 59 60 58 58 57 56 55 55 53
48 50 51 51 51 52 53 55 54 54 55 55 55 56 55 55 54 54 52 51 50 47
46 48 49 49 50 50 52 52 52 52 52 52 52 52 51 49 49 48 47 47 47 44
44 45 45 45 48 48 48 49 48 49 48 47 48 47 46 45 44 43 44 43 42 40
42 42 44 45 48 48 47 44 44 44 43 43 43 44 45 45 43 42 42 42 41 40
43 43 45 46 46 45 42 41 41 41 41 41 40 41 42 41 40 39 39 40 39 39
43 42 44 44 44 44 44 40 39 39 40 40 42 43 39 39 38 37 36 36 37 36
41 41 41 41 41 41 41 40 39 39 41 41 43 44 42 39 36 35 34 34 34 35
40 39 39 39 38 38 37 38 37 38 39 40 41 43 41 39 35 34 33 33 34 34
38 37 37 36 36 35 35 35 35 35 36 37 40 41 40 38 33 33 32 33 33 33
37 36 35 34 34 34 33 32 32 33 33 33 35 40 39 35 30 27 28 31 31 32
37 36 34 34 33 34 34 33 34 32 27 35 24 40 39 31 26 23 28 29 31 39
36 35 34 33 34 33 23 22 23 29 30 27 31 33 41 39 30 29 28 28 28 30

GFSNIL_sfc_temp_042.txt.gz
Temp
49 50 51 50 51 51 52 54 56 58 58 58 59 61 61 57 57 58 57 56 54 54
47 47 48 49 50 50 51 55 55 55 55 55 56 56 56 55 54 56 56 55 55 53
45 46 47 47 47 48 50 51 52 52 52 52 52 53 52 51 51 50 50 52 52 49
43 45 45 45 45 46 47 48 48 49 48 48 48 48 47 46 46 48 48 47 46 44
42 43 43 43 45 45 43 44 44 45 45 44 44 44 43 42 42 45 44 43 42 41
40 40 41 43 44 44 43 41 41 42 41 41 41 41 41 41 41 41 42 41 41 40
40 40 44 45 46 45 42 39 39 39 40 40 39 39 38 37 36 36 38 39 39 39
42 43 43 43 42 43 43 39 38 38 39 39 40 41 37 36 37 36 36 36 37 37
41 41 40 40 40 40 40 40 41 40 39 41 43 43 42 37 35 36 35 34 34 35
40 39 38 38 38 37 37 37 37 38 40 40 40 42 41 39 33 32 32 33 33 34
38 37 37 37 36 35 35 35 35 36 36 38 40 42 40 38 33 30 27 29 27 29
37 36 36 34 34 33 34 33 33 33 34 33 34 41 39 31 23 24 24 29 29 30
37 36 34 34 33 34 34 33 33 25 25 35 21 40 39 30 25 22 28 28 29 38
36 35 35 34 31 25 20 27 30 30 29 25 31 32 40 39 30 28 28 28 28 30

GFSNIL_sfc_temp_045.txt.gz
Temp
47 47 48 48 48 49 49 50 54 55 55 55 57 57 57 56 55 54 57 56 53 53
45 45 45 46 47 49 49 53 52 52 52 52 53 53 54 53 53 56 55 54 54 53
43 45 45 45 45 46 47 48 49 49 49 49 49 49 48 47 48 51 50 49 49 47
42 43 43 44 44 44 44 45 45 46 46 46 45 45 45 44 45 48 46 45 45 43
41 41 41 42 42 43 42 42 42 43 43 42 42 41 41 41 41 41 41 42 43 41
39 39 40 41 42 42 41 40 40 40 39 39 39 39 38 38 38 38 38 38 37 38
39 39 40 44 45 44 43 38 38 38 38 38 37 37 36 36 35 35 36 36 36 37
42 43 43 42 42 42 42 38 37 38 39 40 41 40 35 35 37 37 36 36 36 38
41 41 40 40 40 39 39 40 41 41 40 41 42 43 41 38 36 36 35 34 34 35
40 39 38 39 38 37 37 38 37 38 39 40 41 42 41 39 33 29 29 29 29 32
38 37 37 37 35 35 36 35 36 36 37 37 40 42 40 37 28 26 25 27 24 27
38 36 36 34 33 34 34 33 32 33 32 26 27 40 38 30 23 24 23 28 28 29
38 36 34 34 33 34 34 33 27 21 21 34 20 40 39 29 26 22 27 28 29 36
37 35 35 34 34 31 30 31 30 24 21 24 30 30 40 39 30 29 28 28 28 30

GFSNIL_sfc_temp_048.txt.gz
Temp
46 47 47 47 47 48 48 49 51 53 53 53 54 55 58 57 56 54 56 55 55 54
44 44 44 45 46 47 48 51 50 50 50 50 51 51 54 54 53 53 52 51 51 51
42 43 44 44 43 44 45 46 47 47 47 47 47 47 47 48 51 50 49 49 48 46
41 42 42 42 42 42 43 43 43 44 44 43 43 44 43 43 48 47 46 44 44 42
40 40 40 40 41 41 40 41 40 41 41 40 40 39 40 39 39 40 39 39 39 38
38 38 38 39 40 41 39 38 38 39 38 37 37 37 36 36 36 36 36 36 35 36
37 38 39 42 44 43 42 40 37 37 37 37 36 36 35 36 37 37 37 38 38 37
41 43 43 42 42 42 42 40 39 41 41 42 41 39 38 39 38 37 36 36 37 38
41 41 40 40 40 40 40 40 41 40 40 40 42 42 41 38 36 36 35 33 33 35
40 39 38 38 38 38 37 38 38 38 40 40 41 42 41 38 30 28 26 27 28 31
39 38 37 37 36 36 36 36 36 36 35 34 39 41 39 36 26 23 23 25 23 27
38 37 36 34 34 35 34 33 32 29 26 24 25 40 38 29 20 22 22 28 28 29
38 36 34 34 33 34 34 32 26 21 19 33 20 40 38 29 25 21 27 27 29 36
37 35 35 33 34 32 32 25 21 20 20 24 29 29 40 38 30 29 29 28 29 30

GFSNIL_sfc_temp_051.txt.gz
Temp
52 53 53 52 53 54 54 54 56 56 57 57 58 60 61 58 58 59 58 57 57 56
50 50 50 50 51 52 52 53 53 54 54 54 55 56 57 57 56 55 55 55 55 54
49 49 49 49 49 49 50 50 51 51 52 51 52 53 54 54 54 53 52 52 51 50
47 47 48 48 48 47 48 47 48 48 48 48 48 49 50 50 51 51 49 49 48 47
45 46 46 46 46 46 45 45 45 46 45 45 45 46 47 46 46 45 44 44 44 43
43 44 45 45 45 45 44 44 44 44 43 42 43 43 43 42 41 41 41 42 42 41
42 43 44 46 46 44 44 42 42 43 42 41 40 40 40 40 40 40 41 42 42 42
43 45 44 43 43 43 43 42 43 43 43 43 42 41 40 40 40 39 39 39 40 40
43 42 42 41 41 41 41 41 42 42 42 42 42 43 42 40 39 38 37 36 35 37
41 40 40 40 40 39 39 40 39 40 41 41 42 42 41 38 36 34 33 33 35 36
40 39 39 38 38 37 38 38 38 37 38 39 40 41 39 36 33 32 32 33 33 35
40 38 37 36 36 36 36 34 32 32 32 32 34 40 38 33 32 31 32 35 36 37
39 38 36 36 35 36 36 33 32 30 29 35 31 40 38 33 34 32 34 34 35 37
38 37 36 35 35 33 33 30 28 29 29 31 34 35 40 38 36 35 34 34 34 35

GFSNIL_sfc_temp_054.txt.gz
Temp
61 63 63 61 62 63 62 63 62 63 63 63 64 65 65 63 62 60 59 60 59 59
61 59 59 59 60 61 60 59 60 60 61 61 61 60 60 59 58 57 56 56 57 58
58 58 59 59 58 57 58 57 58 58 59 59 59 60 58 58 58 57 55 56 57 57
58 57 57 58 57 57 56 56 56 56 56 56 57 58 57 55 55 55 54 55 55 54
55 55 55 56 55 55 55 54 54 54 54 54 54 55 56 53 52 53 52 52 52 50
53 53 54 54 54 54 53 53 53 52 52 52 51 52 52 52 50 49 50 49 49 49
51 52 52 53 53 52 50 49 48 50 49 49 48 46 45 45 45 45 45 46 47 47
50 51 50 48 47 46 45 45 45 46 47 47 45 44 43 43 43 43 42 42 42 44
49 47 46 45 44 44 43 43 43 44 45 44 44 43 43 44 43 42 42 40 40 42
47 45 43 43 42 41 41 42 42 43 43 43 43 42 41 41 42 40 38 39 40 41
45 43 42 41 40 40 40 41 41 41 42 41 42 41 40 39 39 37 38 39 39 41
44 41 40 39 39 39 39 37 36 38 38 36 38 40 39 38 38 36 37 40 41 42
43 42 40 39 37 38 38 34 36 33 35 37 36 40 39 37 41 37 39 40 40 38
42 40 39 37 37 35 35 35 34 34 34 36 40 42 40 38 40 40 39 39 39 41

GFSNIL_sfc_temp_057.txt.gz
Temp
65 65 64 63 63 64 64 64 64 64 64 65 65 65 63 62 61 60 60 60 58 57
63 62 62 61 62 62 62 61 61 62 62 62 62 63 61 58 58 57 56 56 56 56
61 60 60 60 60 60 60 59 59 60 60 60 60 60 60 59 59 57 56 56 56 56
60 59 59 59 60 59 59 58 58 58 57 58 58 59 58 57 57 57 56 57 56 55
58 58 57 58 58 58 57 57 56 56 56 56 56 57 57 55 54 54 54 54 53 52
57 56 56 57 57 56 55 55 55 54 54 53 53 54 55 54 53 52 52 51 51 50
55 55 56 56 55 54 54 52 51 51 52 51 50 48 48 49 49 48 48 48 48 47
54 54 53 52 51 50 49 48 47 47 47 48 46 46 45 45 45 44 43 43 43 44
52 51 49 49 48 47 45 45 44 44 45 45 46 44 44 45 43 43 42 40 41 41
51 47 46 47 45 44 42 42 42 43 44 43 43 43 43 44 43 40 39 39 39 41
48 46 45 44 43 42 41 41 41 42 43 42 42 42 41 42 39 37 38 38 39 40
47 44 43 41 41 41 40 38 36 39 40 37 38 41 40 39 37 35 36 39 41 41
46 44 42 41 39 39 38 35 36 34 35 38 36 40 40 38 38 36 37 38 38 39
45 43 42 39 38 36 35 35 35 34 34 36 38 40 40 40 38 38 37 37 37 38

GFSNIL_sfc_temp_060.txt.gz
Temp
58 56 58 57 56 55 55 55 56 57 57 58 59 58 57 57 58 58 57 57 56 57
58 56 56 55 55 54 54 57 54 55 55 56 56 56 60 56 56 55 55 55 55 54
55 55 55 54 54 53 53 54 53 53 53 54 54 54 56 56 56 54 53 54 54 53
55 55 54 54 53 52 52 51 52 52 51 51 52 52 55 54 54 54 53 53 53 52
54 54 53 53 52 52 51 51 50 50 49 50 50 49 50 51 51 52 51 52 51 47
52 51 51 51 52 52 51 49 49 49 48 48 48 47 46 48 46 47 46 45 46 44
50 50 51 52 51 50 48 47 45 45 46 45 43 43 43 44 42 41 42 42 42 42
48 49 48 48 47 46 45 43 43 45 46 46 45 45 44 44 44 42 41 41 42 40
47 46 45 44 43 42 41 41 42 43 44 43 45 44 45 44 42 42 40 39 39 40
46 43 44 46 45 41 38 39 41 42 43 42 42 44 45 45 41 38 37 37 37 39
44 42 44 43 42 40 37 39 40 41 41 40 41 43 43 42 34 31 32 34 34 35
42 41 42 40 40 39 39 38 35 38 38 36 37 41 41 36 28 28 30 34 36 37
42 43 39 40 38 38 38 35 35 34 34 38 32 41 40 36 31 31 32 33 34 40
42 42 39 38 38 35 35 34 34 33 31 32 35 36 41 41 35 34 33 32 33 33

GFSNIL_sfc_temp_063.txt.gz
Temp
57 55 56 57 56 56 55 55 55 56 55 55 56 56 56 55 55 55 56 57 57 56
56 56 55 54 54 53 53 55 53 53 53 54 54 54 54 56 55 54 54 54 55 54
55 55 54 53 53 53 53 53 53 52 52 52 52 52 53 55 55 54 53 53 53 53
53 54 53 52 51 53 52 52 51 51 51 50 49 49 49 54 54 53 52 53 52 51
50 51 50 51 51 51 50 51 51 50 50 49 48 48 47 51 51 51 51 51 49 48
48 48 49 49 51 50 50 49 49 49 48 47 46 44 44 49 48 48 47 47 47 46
47 47 48 48 48 49 47 45 44 45 46 45 44 43 43 44 43 43 43 42 41 41
46 47 46 45 44 43 43 43 43 43 44 44 45 45 44 44 43 42 41 41 41 41
45 44 43 42 41 40 39 40 40 40 41 43 45 45 46 44 42 41 40 39 39 41
44 42 41 41 40 38 37 37 37 39 41 41 42 45 45 45 41 39 38 37 37 39
42 41 41 41 41 40 37 36 37 40 41 40 42 44 44 42 37 36 36 36 35 33
41 40 39 39 40 40 39 38 36 39 38 36 37 42 42 34 28 30 30 33 34 34
41 40 38 39 39 39 38 36 36 34 35 38 35 42 42 35 29 30 30 32 34 41
40 39 38 38 37 36 35 35 34 34 33 34 34 34 42 41 34 32 31 31 32 34

GFSNIL_sfc_temp_066.txt.gz
Temp
57 56 56 56 56 55 54 55 55 56 56 56 56 54 54 53 54 53 53 53 54 55
54 55 55 55 54 54 54 55 54 54 54 54 53 53 52 52 52 52 51 52 52 54
54 54 55 54 54 54 54 54 52 52 52 52 51 51 51 51 53 53 53 53 53 53
52 53 53 52 52 50 52 52 51 51 50 49 49 49 48 49 54 53 52 52 52 51
53 52 51 49 49 50 49 49 49 48 48 47 47 47 46 47 49 51 50 51 50 48
48 48 48 49 48 48 47 46 46 47 46 46 46 45 45 46 47 49 48 48 48 47
45 45 46 47 47 47 46 44 43 43 44 44 43 42 42 43 43 44 44 44 44 44
45 45 45 44 44 43 42 41 41 41 42 41 42 43 41 43 43 42 42 42 42 42
44 43 42 41 40 40 39 39 39 39 40 40 43 45 46 45 42 42 41 39 40 42
43 42 41 40 39 38 36 36 37 37 38 38 39 45 46 45 41 39 38 37 38 39
42 41 40 39 38 37 35 35 35 37 38 37 41 44 44 43 38 37 36 37 37 36
42 40 39 38 37 37 38 37 37 39 39 37 38 43 43 38 34 34 34 35 36 33
42 41 39 37 36 37 39 37 37 34 36 39 35 42 42 34 27 28 29 31 33 40
40 39 38 36 36 36 36 36 35 35 34 35 36 36 43 40 32 31 29 31 32 33

GFSNIL_sfc_temp_069.txt.gz
Temp
59 57 57 57 57 56 56 56 56 56 56 56 56 55 53 53 52 53 53 52 52 52
54 55 55 56 56 56 56 56 55 55 54 54 54 52 52 51 51 51 50 50 50 50
51 52 52 53 53 53 53 53 52 52 51 51 51 51 51 50 51 51 51 50 50 50
50 51 52 52 53 52 53 52 51 50 49 49 49 47 46 47 48 49 50 50 52 51
50 50 51 51 50 51 51 50 48 48 47 46 46 45 44 45 45 46 48 50 50 49
47 47 48 48 51 50 50 49 48 47 45 45 45 44 43 43 44 45 46 48 48 48
44 45 45 46 46 47 46 44 43 43 44 43 42 42 41 41 41 41 42 44 45 45
44 44 44 44 43 43 42 41 41 40 41 41 41 42 40 40 40 40 42 42 42 43
43 43 42 41 41 40 39 38 39 38 39 39 42 45 46 44 39 42 41 40 41 42
42 41 41 40 39 38 37 36 36 37 37 37 38 45 46 46 42 40 39 38 38 39
42 40 40 38 38 36 35 35 35 36 36 36 38 45 45 44 39 38 37 37 37 37
42 40 39 38 37 36 35 34 33 37 39 37 35 44 44 39 35 35 34 36 37 37
41 40 39 37 36 35 36 35 36 35 37 39 35 43 43 38 34 33 33 34 34 40
40 40 39 36 35 34 34 35 35 35 34 36 37 38 43 41 31 30 29 29 30 31

GFSNIL_sfc_temp_072.txt.gz
Temp
57 57 58 58 58 58 57 57 56 55 55 56 57 55 55 53 52 52 52 52 53 53
53 54 54 55 55 55 56 56 55 55 54 54 53 53 52 51 52 51 51 50 50 51
50 52 52 52 53 53 55 54 53 52 53 52 52 51 50 49 50 50 50 50 50 50
50 50 51 51 51 51 51 52 51 51 50 49 49 48 47 47 47 47 48 49 48 49
48 48 49 49 50 51 50 51 50 49 49 48 48 46 45 45 44 45 45 46 47 47
46 46 46 47 48 48 48 47 48 48 48 47 45 44 43 43 42 42 43 44 45 48
44 44 44 45 46 46 46 45 44 45 45 43 42 41 41 41 40 40 40 41 42 45
44 43 43 43 43 43 42 42 41 41 41 40 41 41 39 39 39 38 39 39 42 43
43 42 42 41 41 40 39 39 39 38 39 38 41 45 46 43 38 39 39 39 41 42
42 41 41 40 39 38 37 36 37 37 37 37 37 45 46 46 42 38 39 39 39 40
41 40 40 39 38 37 35 35 35 35 36 36 38 45 45 46 40 36 38 38 38 38
40 39 39 38 37 36 35 34 33 35 35 35 37 44 45 39 35 35 35 37 38 38
40 39 39 39 36 35 35 35 36 34 35 39 37 42 45 40 35 34 34 35 35 40
39 38 38 36 35 34 34 35 36 35 35 35 38 38 44 43 34 32 32 33 33 32

GFSNIL_sfc_temp_075.txt.gz
Temp
60 60 61 61 61 61 60 60 59 57 57 56 55 55 55 55 56 57 57 56 56 57
57 58 58 59 59 59 59 59 59 58 57 55 55 55 55 56 56 56 56 56 56 55
55 56 56 57 57 57 58 57 56 56 54 55 55 56 55 53 54 54 54 55 54 54
55 55 55 56 56 56 56 55 55 55 54 53 52 52 52 52 52 53 53 53 53 54
53 53 54 55 55 55 54 55 55 54 54 53 51 50 51 50 50 50 50 51 51 51
50 51 52 53 53 52 52 52 52 53 51 49 50 50 50 50 49 49 48 48 49 51
49 49 50 51 51 51 51 50 50 50 49 49 48 47 46 46 46 46 46 46 47 48
48 48 48 48 49 49 49 48 48 47 47 47 47 46 46 46 46 46 45 45 45 46
45 46 46 46 46 46 46 45 45 45 45 44 45 46 47 45 44 44 43 44 44 45
45 44 45 45 44 44 43 43 43 43 44 44 45 46 47 47 45 44 43 42 42 42
44 43 44 43 43 43 42 42 42 42 43 43 43 45 46 46 45 42 42 41 41 40
43 42 42 41 42 41 41 40 38 41 40 39 40 45 46 43 39 39 39 41 40 40
42 41 41 41 40 40 40 38 39 36 38 40 38 44 45 41 40 38 38 37 37 41
41 40 40 39 39 37 37 38 37 36 36 37 41 43 45 44 39 39 38 37 35 36

GFSNIL_sfc_temp_078.txt.gz
Temp
64 64 65 66 65 66 64 64 63 62 62 61 60 57 56 56 56 56 56 57 59 62
62 61 63 64 65 65 65 63 63 63 61 60 60 59 58 57 57 57 58 59 60 60
61 61 61 62 62 62 63 62 62 60 59 58 59 59 58 58 59 58 58 59 59 59
61 60 61 61 61 61 61 59 57 56 57 58 59 59 58 58 57 57 57 57 57 58
61 60 59 60 61 61 61 60 56 55 56 57 58 58 57 55 55 55 54 54 54 54
58 59 60 60 61 60 61 61 61 58 57 58 58 58 58 59 56 56 57 56 55 57
55 56 58 59 59 59 59 60 60 59 59 58 57 58 57 56 55 54 54 55 55 54
53 55 55 55 56 57 57 57 57 58 56 56 56 54 54 53 54 54 53 52 52 51
52 53 53 54 54 55 55 56 55 54 54 52 53 48 49 52 51 51 51 49 50 51
51 50 50 51 52 52 52 53 51 52 53 52 53 47 48 47 51 50 49 48 48 48
49 49 50 50 50 52 52 51 51 51 51 51 51 47 48 47 50 49 48 48 48 47
47 47 48 47 48 50 50 49 47 50 49 48 48 45 47 47 47 46 45 47 48 45
46 46 46 47 46 47 47 47 46 41 46 46 45 45 46 46 44 43 45 46 46 43
46 45 45 45 46 44 43 45 44 41 39 42 46 48 46 46 42 44 45 43 41 42

GFSNIL_sfc_temp_081.txt.gz
Temp
63 63 66 67 66 65 65 65 65 64 64 63 62 60 59 58 57 57 56 56 56 57
63 62 63 65 65 64 65 63 63 62 61 61 60 59 58 57 57 57 57 57 57 58
60 62 62 63 63 65 65 63 62 61 60 59 59 58 57 58 59 58 59 58 58 59
61 61 61 62 63 63 63 62 60 58 58 57 57 58 59 59 58 58 58 57 57 57
61 61 61 61 62 62 61 62 58 56 56 56 57 59 58 57 57 56 56 56 55 56
58 58 59 60 61 61 60 62 61 55 53 54 55 57 59 58 56 56 56 56 55 55
56 56 57 58 59 60 60 60 60 60 55 54 54 55 56 56 56 55 55 56 55 55
55 56 56 56 56 57 58 58 58 59 58 57 54 54 56 54 53 53 52 53 53 52
53 53 53 53 53 55 56 57 57 56 56 55 55 52 51 53 53 53 53 51 51 51
51 51 51 52 53 52 53 54 54 54 54 54 54 50 49 49 53 51 50 49 49 49
48 47 49 50 50 51 52 52 52 52 53 53 53 48 48 48 49 50 49 48 48 48
47 45 46 46 47 48 47 48 48 50 50 50 49 47 47 47 45 44 46 48 48 48
47 47 45 45 45 46 46 45 46 45 46 48 47 47 46 46 44 42 44 46 47 46
48 46 46 46 45 44 43 43 43 43 43 43 47 48 46 47 45 43 42 44 42 43

GFSNIL_sfc_temp_084.txt.gz
Temp
59 60 62 62 62 61 61 61 62 62 61 61 62 60 59 59 58 57 57 56 56 56
56 56 58 59 61 62 62 62 62 61 61 61 61 60 59 58 57 57 57 56 56 56
55 56 56 57 57 58 60 61 60 60 60 60 60 59 58 57 57 56 55 56 55 55
55 55 55 56 56 56 56 57 58 58 58 58 57 57 56 56 56 55 55 55 55 54
53 53 53 54 55 56 55 56 55 54 55 56 56 56 56 55 55 55 53 52 52 52
50 50 50 51 53 55 54 54 55 53 53 54 54 55 55 55 54 52 52 52 51 51
47 48 49 50 51 51 52 52 53 53 51 52 53 53 53 53 52 52 52 52 51 50
47 48 47 48 48 49 49 50 51 51 51 50 51 52 52 52 51 51 49 49 50 49
46 46 45 46 46 46 46 47 49 49 49 48 51 52 52 52 50 50 50 48 48 48
44 43 43 44 44 44 44 45 45 46 47 47 47 51 51 51 48 48 48 47 46 46
42 41 42 42 43 44 47 46 47 45 45 45 47 50 50 49 44 44 44 44 44 43
41 40 41 40 44 44 44 44 42 45 45 44 44 48 48 46 41 40 41 43 44 43
41 40 39 39 41 44 44 43 43 41 44 45 43 47 47 46 39 38 39 42 45 47
40 39 39 38 38 38 41 42 41 41 42 42 43 44 48 47 43 40 40 41 41 42

GFSNIL_sfc_temp_087.txt.gz
Temp
57 58 60 61 60 60 60 59 60 60 60 60 60 60 60 60 59 59 58 58 57 56
54 56 55 57 59 60 60 61 61 60 61 61 61 61 60 59 58 58 58 58 57 57
53 54 54 55 55 56 57 58 58 59 59 60 60 60 59 58 59 58 57 57 56 56
51 52 53 53 54 54 55 55 55 55 56 57 58 58 57 57 57 57 56 56 56 55
49 50 50 50 52 53 53 54 53 53 53 54 56 56 56 55 55 55 54 54 54 54
47 47 47 48 49 50 51 51 52 52 51 51 53 55 55 55 55 55 55 54 54 53
44 45 45 46 47 48 48 48 49 50 50 50 51 53 53 53 52 52 52 52 52 51
44 45 44 45 45 46 46 46 47 47 48 49 49 50 51 51 51 50 50 50 51 50
43 43 42 43 43 44 44 44 44 44 45 46 49 50 51 50 49 49 49 48 49 49
42 41 40 41 41 41 43 44 43 43 43 43 44 50 51 51 47 46 47 46 47 46
40 39 40 39 40 40 44 44 44 43 45 45 45 48 50 50 44 43 43 44 44 43
39 38 38 37 37 38 39 41 42 43 43 42 44 47 47 47 41 39 40 42 42 42
39 38 36 36 36 37 37 38 39 38 40 42 42 45 46 46 41 39 40 40 41 46
38 37 36 35 35 35 35 36 35 35 36 37 40 43 46 46 44 42 41 42 41 42

GFSNIL_sfc_temp_090.txt.gz
Temp
54 55 56 59 59 59 59 59 60 60 61 61 61 61 60 61 61 60 59 58 58 58
53 53 53 54 55 57 58 60 60 60 59 59 59 59 59 59 59 58 59 59 58 57
51 52 52 53 52 53 55 55 56 58 58 59 60 60 60 60 60 59 59 58 58 57
49 50 51 51 51 52 53 53 53 54 54 55 56 58 58 58 58 58 58 57 57 56
48 47 47 48 48 49 49 50 51 51 52 52 53 56 56 56 56 56 56 56 55 55
45 45 45 46 47 48 48 48 48 48 48 50 50 51 54 55 55 55 55 55 54 55
42 42 43 44 45 45 46 45 46 47 47 48 49 50 50 53 52 52 52 53 53 54
41 41 41 42 42 43 43 43 44 44 45 45 47 49 48 49 51 50 50 50 51 50
41 40 40 40 40 41 41 42 42 42 42 42 46 48 50 49 46 47 49 48 48 49
39 39 38 39 39 38 38 39 40 42 44 42 43 48 49 48 45 44 44 45 46 46
37 37 37 37 37 36 37 37 38 38 40 41 44 47 47 47 44 43 42 42 43 43
37 36 36 35 34 35 35 35 35 38 38 37 39 44 46 46 43 41 42 42 41 41
37 36 34 34 33 34 34 35 36 36 35 38 35 41 44 45 42 41 41 43 42 45
36 35 34 33 32 32 31 33 32 33 33 33 36 38 43 44 43 42 41 42 42 42

GFSNIL_sfc_temp_093.txt.gz
Temp
52 53 54 55 56 58 59 59 60 60 60 60 60 60 60 60 60 60 60 60 60 60
50 50 50 51 52 53 54 56 58 59 59 60 60 60 60 60 60 60 60 60 59 59
50 50 51 50 50 51 52 52 53 54 55 57 58 59 59 59 59 59 59 59 58 58
48 48 49 49 49 49 51 51 51 52 53 53 54 56 57 58 58 58 58 58 58 58
46 46 46 46 47 48 47 48 48 49 50 51 51 52 54 55 56 56 56 57 56 56
42 42 42 43 44 45 45 46 46 46 46 47 48 49 50 53 54 55 55 56 55 55
39 39 39 40 42 42 43 43 43 44 44 44 45 47 47 48 49 52 52 53 53 54
38 39 38 39 39 40 40 40 41 42 42 43 44 47 46 46 46 47 48 49 50 51
37 37 37 37 38 38 38 38 39 39 40 40 44 47 48 47 43 44 45 47 49 49
37 36 36 36 36 36 35 36 36 37 38 38 39 46 47 47 44 42 42 42 43 45
36 35 35 34 34 34 34 34 35 35 36 36 39 44 45 45 43 43 43 41 41 41
35 34 34 33 32 33 32 32 32 35 34 34 35 42 43 43 43 42 42 43 43 41
35 34 33 32 31 32 31 32 34 33 33 35 33 39 43 43 41 40 42 44 44 45
34 33 32 31 30 29 29 29 29 30 31 31 33 34 42 43 39 39 40 40 41 43

GFSNIL_sfc_temp_096.txt.gz
Temp
50 51 51 51 52 53 53 55 58 59 59 59 59 59 59 59 60 60 59 59 59 60
48 49 49 50 50 50 51 53 54 55 57 59 59 59 59 59 60 60 60 60 59 59
48 48 48 48 48 49 50 50 50 52 54 54 55 56 58 59 59 59 59 59 59 59
46 47 46 46 47 47 48 48 49 49 51 51 52 53 54 56 56 57 58 58 58 58
43 43 43 43 44 46 45 46 46 47 47 48 49 50 50 51 53 54 55 56 56 56
40 40 40 41 41 42 42 43 44 44 44 44 45 47 48 48 49 50 53 54 54 55
36 36 37 38 39 40 40 40 40 41 42 42 43 45 45 46 45 46 47 49 51 52
36 36 36 36 37 37 38 38 38 39 39 40 42 44 45 45 44 43 44 46 48 50
36 36 35 35 35 35 35 35 36 36 37 37 42 45 46 45 42 43 43 42 44 45
35 35 34 34 34 34 33 33 33 34 35 35 36 44 45 45 41 41 42 42 43 43
34 33 33 33 32 31 32 32 32 32 33 33 36 43 44 44 38 39 42 43 41 42
33 32 32 31 30 31 30 30 30 31 31 30 32 41 43 41 35 36 36 40 44 43
33 31 30 30 29 29 28 30 30 30 29 33 30 37 41 41 35 33 34 36 39 44
32 31 30 29 28 28 28 28 26 28 27 27 30 30 40 42 36 34 35 38 38 40

GFSNIL_sfc_temp_099.txt.gz
Temp
49 49 50 50 51 50 50 51 53 55 59 59 60 60 59 59 59 60 59 59 60 61
48 47 47 49 50 49 49 51 50 52 54 55 55 57 59 59 59 59 59 59 59 59
47 48 48 48 47 48 49 49 49 49 50 51 52 53 55 55 57 58 59 60 59 60
46 46 47 47 47 48 48 49 48 48 49 49 50 51 51 52 53 53 55 56 58 58
45 45 45 45 46 47 46 48 47 47 47 48 48 49 49 48 49 50 51 52 54 55
42 42 42 43 44 45 45 45 46 46 45 46 46 47 48 48 48 48 49 49 50 52
41 41 41 42 42 43 43 43 43 44 44 44 45 46 47 47 47 47 47 48 49 50
40 41 41 41 41 42 42 42 42 43 43 43 45 46 46 45 45 45 45 46 47 48
40 40 39 39 40 40 40 40 41 40 40 41 43 44 46 46 44 43 43 43 44 46
39 39 38 38 38 38 38 38 38 39 39 39 40 43 44 45 43 41 42 42 43 44
37 37 38 37 37 37 38 37 37 37 38 37 39 41 43 43 43 41 41 41 42 43
36 36 36 35 34 35 35 34 35 36 35 35 35 39 41 41 40 39 40 41 42 42
35 35 34 34 34 35 34 34 35 34 35 35 34 37 39 41 40 38 39 40 41 42
35 33 34 33 33 32 32 32 31 32 33 33 35 36 38 40 40 38 38 38 38 40

GFSNIL_sfc_temp_102.txt.gz
Temp
47 47 47 48 49 49 49 50 51 53 53 54 55 57 60 60 59 60 59 59 58 58
47 47 47 48 51 50 50 51 49 50 50 51 52 53 55 56 56 58 59 59 59 59
48 48 50 52 51 54 55 53 53 50 49 50 51 51 51 52 53 54 55 56 58 59
51 50 51 51 51 51 53 54 52 52 52 52 51 51 50 50 50 49 50 52 52 54
52 52 52 50 52 53 52 52 53 53 53 51 52 53 52 52 52 51 50 50 50 50
51 51 51 52 51 52 52 52 52 52 50 51 51 53 53 53 53 53 52 52 51 52
50 50 50 51 51 51 51 51 50 51 50 49 50 51 50 51 51 51 51 52 51 52
49 49 49 49 49 49 49 49 49 49 49 49 49 49 47 49 49 48 48 50 50 50
48 48 48 48 47 48 48 48 48 47 47 47 48 44 45 46 47 48 47 47 48 49
47 46 47 47 47 46 46 47 45 46 46 45 46 44 43 44 46 47 46 45 45 46
45 44 45 44 44 44 45 44 44 44 44 43 44 42 42 42 45 45 45 45 46 46
43 42 42 42 42 42 42 42 41 42 42 41 41 42 41 41 43 43 44 46 47 46
42 41 41 41 41 41 41 40 41 40 41 41 40 41 41 41 42 42 43 45 46 44
42 41 40 40 40 39 39 39 38 39 40 42 42 42 41 40 41 41 41 42 43 45

GFSNIL_sfc_temp_105.txt.gz
Temp
51 50 49 47 48 47 48 50 51 50 50 51 51 52 53 53 55 59 59 58 58 58
46 47 46 47 50 53 52 53 53 52 50 50 50 50 50 51 50 53 53 56 57 58
50 50 50 52 53 53 54 54 55 53 53 52 51 50 50 49 50 50 50 51 51 53
53 53 52 52 53 54 54 53 53 54 54 53 53 53 51 50 50 49 49 49 49 50
53 53 52 52 52 53 53 54 53 52 52 52 52 52 52 51 52 51 51 51 50 50
53 53 53 52 53 53 53 53 53 52 51 50 51 51 51 51 51 51 51 51 50 51
52 52 52 52 51 51 51 51 50 50 51 50 50 50 47 48 49 49 49 50 50 50
51 51 51 50 50 51 50 50 50 49 49 49 49 48 44 45 46 47 47 48 49 49
50 50 49 49 49 49 48 48 48 47 47 46 48 47 45 44 43 45 46 45 46 47
49 48 47 47 47 46 46 47 46 46 46 45 46 46 44 43 43 43 44 44 44 45
46 45 45 45 44 45 45 44 44 44 44 44 44 44 43 43 42 43 44 44 44 45
44 43 43 42 42 43 42 42 41 42 42 41 41 43 42 42 40 41 42 45 46 46
43 42 41 41 41 41 41 40 40 39 40 41 40 43 43 42 40 39 41 43 45 46
43 42 42 41 41 39 39 39 38 38 40 42 43 43 43 41 39 38 38 39 40 43

GFSNIL_sfc_temp_108.txt.gz
Temp
45 46 46 44 45 48 48 49 51 51 50 51 51 51 51 50 50 51 50 51 52 56
46 46 46 48 48 47 49 51 51 50 50 50 51 51 50 48 47 48 49 49 50 51
49 49 50 51 50 50 50 49 49 49 49 49 48 48 50 48 46 45 46 48 48 49
49 49 49 49 49 49 50 50 49 50 49 49 49 49 48 48 49 48 47 47 47 49
46 47 48 47 47 48 47 48 48 48 47 47 48 48 47 46 47 47 46 47 47 47
44 44 43 43 44 45 44 44 45 45 44 44 44 46 44 45 45 46 46 46 45 46
42 42 42 42 43 43 43 42 42 42 43 43 43 43 43 42 42 42 44 45 44 44
42 43 42 42 41 41 41 41 41 41 41 41 42 45 40 40 39 38 41 41 44 43
43 42 40 40 39 39 39 39 39 39 39 38 44 46 47 44 38 38 38 38 40 41
42 40 39 39 39 38 37 37 37 37 37 37 37 45 46 45 39 37 37 37 38 40
39 38 38 37 36 35 35 35 35 35 36 35 38 43 44 44 37 35 36 37 38 38
38 36 36 34 34 34 34 33 32 35 34 33 34 42 43 42 34 34 35 38 39 39
37 36 34 33 32 33 33 33 33 33 33 36 34 40 44 42 34 31 34 35 37 41
36 34 34 33 32 31 31 31 30 30 31 32 35 34 42 42 37 34 34 34 34 37

GFSNIL_sfc_temp_111.txt.gz
Temp
46 45 46 46 46 46 46 48 50 49 50 50 51 50 49 47 46 48 47 47 47 49
47 47 46 47 48 48 48 51 48 48 48 48 49 48 49 47 44 46 46 46 46 47
46 46 47 48 48 49 49 49 48 48 47 47 47 47 47 45 46 45 45 46 45 45
43 44 45 44 43 44 45 45 45 45 45 44 44 44 42 43 45 44 44 44 45 46
42 41 40 40 41 42 41 43 43 42 42 42 42 42 40 39 40 41 42 43 44 44
40 39 39 39 40 41 40 40 40 40 40 40 41 40 39 40 39 39 39 40 41 42
39 39 38 39 39 39 39 38 38 39 39 39 39 40 40 39 38 37 39 40 40 40
40 40 39 38 38 38 37 37 37 37 37 37 39 43 39 38 36 35 36 37 39 40
40 39 38 37 36 36 36 35 35 35 35 35 41 44 45 43 36 35 35 34 36 38
39 38 36 36 35 34 33 33 33 33 34 34 33 43 44 44 38 35 34 34 35 36
37 35 35 34 33 32 32 32 32 32 32 32 36 42 43 43 36 33 32 33 34 34
35 34 33 32 31 31 31 30 30 32 31 30 31 40 42 41 32 32 32 34 35 36
35 33 32 31 30 31 30 31 30 31 30 33 29 38 41 40 32 30 31 32 34 38
34 32 32 31 30 28 28 28 27 28 28 29 31 31 39 39 35 33 34 33 32 34

GFSNIL_sfc_temp_114.txt.gz
Temp
47 46 46 46 46 46 46 46 48 48 48 48 49 48 48 45 44 44 43 44 44 46
43 42 43 45 46 46 47 50 48 47 47 47 47 47 46 45 45 44 45 44 44 44
41 41 41 41 41 41 42 43 43 43 43 42 44 44 42 41 43 42 42 43 43 43
40 40 39 39 39 39 40 40 40 40 40 40 40 39 38 38 39 38 39 40 41 42
39 38 38 38 38 39 38 38 38 38 38 39 39 38 37 37 37 36 36 37 38 38
38 38 37 37 37 38 37 37 37 37 36 37 37 37 37 37 36 36 36 36 36 37
38 37 36 36 37 37 36 36 35 36 36 36 36 37 38 37 35 34 35 35 35 35
39 38 37 36 35 35 35 35 34 34 34 34 36 40 37 37 35 34 33 34 35 36
39 38 36 35 34 34 33 33 33 32 32 32 38 42 44 42 35 34 33 31 33 34
38 36 35 34 33 32 31 31 31 32 31 31 31 42 43 43 36 33 31 32 32 33
36 34 33 32 31 31 30 31 30 30 31 30 33 40 42 42 32 31 31 31 31 31
35 33 32 31 30 30 30 29 28 30 29 27 28 38 40 39 30 31 31 32 32 33
34 32 31 30 29 30 29 30 30 30 28 32 27 35 39 37 30 29 30 29 31 37
33 32 31 29 29 28 27 28 26 28 26 26 29 29 37 38 32 30 30 29 30 31

GFSNIL_sfc_temp_117.txt.gz
Temp
42 41 42 42 43 44 45 45 46 46 47 47 47 47 46 46 45 46 44 43 43 43
38 39 38 39 40 39 40 45 41 40 40 41 42 43 43 41 39 39 40 41 41 41
38 38 38 38 38 38 38 39 39 39 38 38 38 38 37 37 37 36 36 39 38 39
38 38 37 37 37 37 37 37 37 37 37 37 37 36 36 36 36 35 35 35 35 36
38 37 37 36 36 36 36 36 36 36 36 36 36 36 35 35 35 34 34 34 34 34
38 37 36 35 35 36 35 34 35 35 34 34 35 35 35 35 34 34 34 33 33 33
37 36 35 35 35 35 34 34 34 34 34 34 34 35 36 35 34 33 34 34 33 33
38 37 36 35 34 34 34 33 32 32 33 32 34 38 36 35 34 33 32 32 33 34
37 36 35 34 33 32 32 31 31 31 31 30 36 40 43 41 33 32 31 30 31 32
36 35 34 33 32 31 30 29 29 30 30 29 29 41 42 42 32 31 30 31 31 32
35 34 33 31 30 30 29 29 29 28 29 28 31 39 41 41 31 29 30 31 29 29
34 33 32 31 29 28 28 27 27 29 27 26 28 37 39 37 30 31 30 30 30 31
33 32 30 29 28 28 27 30 30 30 28 30 27 34 37 37 30 28 29 29 30 36
32 31 30 28 27 27 27 28 25 27 26 25 27 27 36 38 32 30 30 30 30 31